Погода в Хомутникове

Россия / Республика Калмыкия     45°36′16″N   44°49′07″E
темп.,
°C
ветер,
м/с
пор.,
м/с
влажн.,
%
обл.,
%
осадки,
мм/ч
давл.,
гПа
погр.,
м
27 февраля, сб
сб2700:00+3з8179495 0.0 1020464
03:00+3з8179397 0.0 1019508
06:00+3з81790100 0.0 1018507
09:00+4з9178499 0.0 1018719
12:00+5з9158396 0.0 1016638
15:00+5з6148698 0.0 1015560
18:00+4зюз51488100 0.1 1014445
21:00+4зюз51588100 0.3 1014484
28 февраля, вс
вс2800:00+4з61590100 0.1 1013526
03:00+3зсз5995100 0.2 1014289
06:00+2зсз4896100 0.1 1014306
09:00+2сз4695100 0.4 1015267
12:00+4зсз4579100 0.1 1015622
15:00+5зсз5677100 0.1 1016834
18:00+3зсз4785100 0.1 1017497
21:00+2зсз3692100 0.1 1019220
1 марта, пн
пн100:00+1зсз3590100 0.0 1020187
03:000зсз3789100 0.0 1021205
06:00+1зсз479050 0.0 1022464
09:00+2сз577757 0.0 1024590
12:00+3зсз567964 0.0 1025732
15:00+4сз456882 0.1 1025988
18:00+2зсз237989 0.1 102670
21:00+1ссв239693 0.2 102798
2 марта, вт
вт200:000юв119591 0.0 102785
03:000юз229286 0.0 102748
06:00−1з34922 0.0 102791
09:00+2з578410 0.0 1027523
12:00+4з797289 0.1 10261117
15:00+4з8116594 0.1 10231461
18:00+3з5127399 0.0 1021698
21:00+2зюз6157899 0.0 10201074
3 марта, ср
ср300:00+1з111796100 0.9 10181067
03:00+2з121896100 2.6 10151114
06:00+2з121894100 0.9 10141113
09:00+1сз71196100 2.4 1015594
12:00+4сз9126990 0.1 10161384
15:00+4сз9126694 0.3 10171497
18:00+1зсз6127442 0.0 1019538
21:00+1зсз7137821 0.0 1021522